DW9417 Weather Reports


Display with metric or nautical units.
time (UTC)temp
F
wind
direction
speed
MPH
gust
MPH
rain 1hr
in
rain 24hr
in
rain mn
in
humidity
%
barometer
mb
20260508104526 60 86 1.0 4.0 0.00 0.00 0.00 52 1027.5
20260508103026 61 96 2.0 4.0 0.00 0.00 0.00 51 1027.4
20260508101525 62 80 4.0 6.0 0.00 0.00 0.00 50 1027.3
20260508100027 63 86 2.0 4.0 0.00 0.00 0.00 49 1027.2
20260508094523 64 80 3.0 6.0 0.00 0.00 0.00 47 1027.0
20260508093026 65 86 3.0 8.0 0.00 0.00 0.00 45 1026.9
20260508091522 67 101 7.0 10.0 0.00 0.00 0.00 44 1026.9
20260508090024 67 116 7.0 12.0 0.00 0.00 0.00 44 1026.8
20260508084521 68 11 8.0 12.0 0.00 0.00 0.00 43 1026.9
20260508083020 68 82 7.0 12.0 0.00 0.00 0.00 43 1026.8
20260508081525 69 77 7.0 13.0 0.00 0.00 0.00 42 1026.7
20260508080030 69 86 9.0 14.0 0.00 0.00 0.00 42 1026.8
20260508074519 69 117 9.0 13.0 0.00 0.00 0.00 42 1026.8
20260508073018 70 28 5.0 12.0 0.00 0.00 0.00 42 1026.8
20260508071517 70 111 7.0 14.0 0.00 0.00 0.00 42 1026.8
20260508070021 70 98 9.0 13.0 0.00 0.00 0.00 43 1026.8
20260508064529 70 97 8.0 11.0 0.00 0.00 0.00 43 1027.0
20260508063010 70 38 5.0 14.0 0.00 0.00 0.00 43 1027.0
20260508061512 70 105 11.0 15.0 0.00 0.00 0.00 43 1027.1
20260508060007 69 92 1.0 15.0 0.00 0.00 0.00 44 1027.1
20260508054504 70 54 6.0 13.0 0.00 0.00 0.00 44 1027.4
20260508053106 70 360 5.0 15.0 0.00 0.00 0.00 45 1027.5
20260508051617 70 31 6.0 10.0 0.00 0.00 0.00 45 1027.8
20260508050113 69 63 2.0 13.0 0.00 0.00 0.00 46 1028.0
20260508044557 69 30 5.0 12.0 0.00 0.00 0.00 46 1028.3
20260508043054 69 42 4.0 12.0 0.00 0.00 0.00 47 1028.5
20260508041555 69 55 1.0 14.0 0.00 0.00 0.00 48 1028.7
20260508040054 67 41 6.0 16.0 0.00 0.00 0.00 51 1029.1
20260508034546 67 74 7.0 13.0 0.00 0.00 0.00 53 1029.4
20260508033044 67 40 6.0 15.0 0.00 0.00 0.00 52 1029.6
20260508031540 67 68 6.0 13.0 0.00 0.00 0.00 51 1029.7
20260508030036 66 40 5.0 15.0 0.00 0.00 0.00 55 1030.0
20260508024535 64 37 6.0 13.0 0.00 0.00 0.00 60 1030.2
20260508023030 64 59 7.0 15.0 0.00 0.00 0.00 62 1030.5
20260508021532 63 34 7.0 13.0 0.00 0.00 0.00 62 1030.7
20260508020027 63 82 6.0 12.0 0.00 0.00 0.00 64 1030.9
20260508014526 62 57 5.0 15.0 0.00 0.00 0.00 66 1031.0
20260508013023 62 29 6.0 14.0 0.00 0.00 0.00 67 1031.2
20260508011520 61 71 7.0 13.0 0.00 0.00 0.00 69 1031.3
20260508010016 60 97 7.0 13.0 0.00 0.00 0.00 71 1031.4
20260508004511 58 15 5.0 10.0 0.00 0.00 0.00 75 1031.6
20260508003009 56 55 4.0 9.0 0.00 0.00 0.00 79 1031.7
20260508001507 55 94 6.0 10.0 0.00 0.00 0.00 80 1031.7
20260508000006 53 98 5.0 10.0 0.00 0.00 0.00 85 1031.6
20260507234501 48 86 2.0 4.0 0.00 0.00 0.00 92 1031.6
20260507233116 45 107 0.0 0.0 0.00 0.00 0.00 89 1031.6
20260507231557 44 106 0.0 0.0 0.00 0.00 0.00 89 1031.4
20260507230054 44 104 0.0 0.0 0.00 0.00 0.00 88 1031.3
20260507224554 45 105 0.0 0.0 0.00 0.00 0.00 88 1031.3
20260507223104 44 104 0.0 0.0 0.00 0.00 0.00 89 1031.3
20260507221552 43 102 0.0 0.0 0.00 0.00 0.00 85 1031.2
20260507220047 44 105 0.0 0.0 0.00 0.00 0.00 86 1031.2
20260507214547 45 99 0.0 0.0 0.00 0.00 0.00 85 1031.1
20260507213044 45 101 0.0 0.0 0.00 0.00 0.00 84 1031.1
20260507211549 45 101 0.0 0.0 0.00 0.00 0.00 85 1031.0
20260507204543 45 101 0.0 0.0 0.00 0.00 0.00 83 1030.7
20260507203038 46 101 0.0 0.0 0.00 0.00 0.00 81 1030.6
20260507201531 47 105 0.0 0.0 0.00 0.00 0.00 80 1030.6
20260507200031 48 106 0.0 3.0 0.00 0.00 0.00 77 1030.6
20260507194537 48 101 3.0 6.0 0.00 0.00 0.00 79 1030.4
20260507193024 49 101 3.0 6.0 0.00 0.00 0.00 77 1030.5
20260507191520 50 101 2.0 4.0 0.00 0.00 0.00 75 1030.6
20260507190020 51 102 2.0 4.0 0.00 0.00 0.00 74 1030.7
20260507184517 52 102 3.0 6.0 0.00 0.00 0.00 73 1030.6
20260507183015 53 102 3.0 4.0 0.00 0.00 0.00 71 1030.6
20260507181507 54 73 1.0 3.0 0.00 0.00 0.00 70 1030.5
20260507180006 54 74 2.0 7.0 0.00 0.00 0.00 68 1030.5
20260507174509 55 86 3.0 5.0 0.00 0.00 0.00 68 1030.3
20260507173005 56 81 5.0 9.0 0.00 0.00 0.00 67 1030.3
20260507171559 56 101 7.0 10.0 0.00 0.00 0.00 66 1030.2
20260507170058 56 70 5.0 9.0 0.00 0.00 0.00 66 1030.3
20260507164628 56 88 5.0 9.0 0.00 0.00 0.00 66 1030.2
20260507163054 56 78 3.0 8.0 0.00 0.00 0.00 66 1030.3
20260507161555 56 81 3.0 11.0 0.00 0.00 0.00 65 1030.3
20260507160047 57 88 5.0 9.0 0.00 0.00 0.00 65 1030.2
20260507154546 57 79 6.0 10.0 0.00 0.00 0.00 65 1030.2
20260507153046 57 97 6.0 9.0 0.00 0.00 0.00 64 1030.1
20260507151547 57 95 7.0 10.0 0.00 0.00 0.00 64 1030.2
20260507150047 57 82 7.0 11.0 0.00 0.00 0.00 63 1030.1
20260507144544 58 89 5.0 11.0 0.00 0.00 0.00 62 1030.2
20260507143045 58 99 7.0 12.0 0.00 0.00 0.00 61 1030.2
20260507141543 59 92 6.0 20.0 0.00 0.00 0.00 59 1030.2
20260507140045 59 106 7.0 11.0 0.00 0.00 0.00 59 1030.1
20260507134541 59 97 6.0 14.0 0.00 0.00 0.00 59 1030.0
20260507133046 59 105 8.0 13.0 0.00 0.00 0.00 58 1029.8
20260507131541 60 109 8.0 12.0 0.00 0.00 0.00 57 1029.7
20260507130042 59 106 6.0 9.0 0.00 0.00 0.00 59 1029.6
20260507124540 58 122 5.0 9.0 0.00 0.00 0.00 59 1029.5
20260507123037 58 115 4.0 7.0 0.00 0.00 0.00 58 1029.4
20260507121536 58 111 5.0 7.0 0.00 0.00 0.00 58 1029.4
20260507120036 58 113 4.0 7.0 0.00 0.00 0.00 58 1029.3
20260507114554 58 113 4.0 8.0 0.00 0.00 0.00 57 1029.3
20260507113059 59 111 4.0 8.0 0.00 0.00 0.00 56 1029.2
20260507111540 59 117 6.0 10.0 0.00 0.00 0.00 56 1029.1
20260507110034 58 109 5.0 7.0 0.00 0.00 0.00 56 1029.2